Flag for Canada Weather past 2 weeks in Halifax, Nova Scotia, Canada

Now
14 °F

Mostly cloudy.


Feels Like: 3 °F
Forecast: 6 / 19 °F
Wind: 8 mph from North

Location: Halifax International Airport

Current Time: Feb 26, 2015 at 9:08:44 PM

Latest Report: Feb 26, 2015 at 8:00 PM


Visibility: 15 mi

Pressure: 29.92 "Hg

Humidity: 73%

Dew point: 7 °F

Location of HalifaxLocation

Historic Weather in Halifax — Graph

°F

Halifax temperature yesterday

Maximum temperature yesterday: 36 °F (at 5:00 PM)
Minimum temperature yesterday: 5 °F (at 12:00 AM)
Average temperature yesterday: 23 °F

Past Weeks' High & Low Weather Summary

 TemperatureHumidityPressure
High41 °F (Feb 22, 8:00 AM)100% (Feb 15, 9:00 AM)30.50 "Hg (Feb 15, 9:00 AM)
Low-8 °F (Feb 24, 6:00 AM)39% (Feb 21, 3:00 PM)28.68 "Hg (Feb 15, 8:00 PM)
Average17 °F78%29.76 "Hg
* Reported Feb 11 7:00 PM — Feb 26 7:00 PM, Halifax, Weather by CustomWeather, © 2015

Note: Actual official high and low records may vary slightly from our data, if they occured in-between our weather recording intervals... More about our weather records

Advertising

Halifax weather history for previous 24 hours

 ConditionsComfort  
Time TempWeatherWind HumidityBarometerVisibility
7:00 PM
Thu, Feb 26
14 °FOvercast.10 mph73%29.93 "Hg15 mi
6:00 PM16 °FOvercast.7 mph67%29.96 "Hg15 mi
5:00 PM16 °FOvercast.9 mph62%29.94 "Hg15 mi
4:00 PM18 °FOvercast.8 mph58%29.94 "Hg15 mi
3:00 PM18 °FOvercast.8 mph53%29.95 "Hg15 mi
2:00 PM18 °FOvercast.13 mph53%29.97 "Hg15 mi
1:00 PM18 °FOvercast.10 mph58%29.97 "Hg15 mi
12:00 PM19 °FOvercast.12 mph63%29.98 "Hg15 mi
11:00 AM18 °FOvercast.13 mph68%29.99 "Hg15 mi
10:00 AM18 °FOvercast.8 mph68%30.00 "Hg15 mi
9:00 AM18 °FPartly sunny.12 mph73%29.98 "Hg15 mi
8:00 AM14 °FScattered clouds.10 mph79%29.96 "Hg15 mi
7:00 AM14 °FPassing clouds.9 mph79%29.93 "Hg15 mi
6:00 AM16 °FPassing clouds.12 mph79%29.90 "Hg15 mi
5:00 AM16 °FPassing clouds.13 mph79%29.89 "Hg15 mi
4:00 AM16 °FClear.12 mph79%29.85 "Hg15 mi
3:00 AM16 °FClear.12 mph86%29.83 "Hg15 mi
2:00 AM18 °FClear.10 mph79%29.81 "Hg15 mi
1:00 AM18 °FClear.14 mph79%29.77 "Hg15 mi
12:00 AM19 °FClear.17 mph73%29.72 "Hg15 mi
11:00 PM
Wed, Feb 25
21 °FPassing clouds.20 mph74%29.67 "Hg15 mi
10:00 PM23 °FSnow flurries. Overcast.17 mph86%29.62 "Hg5 mi
9:00 PM25 °FSnow flurries. Passing clouds.25 mph74%29.58 "Hg15 mi
Weather by CustomWeather, © 2015

See weather overviewHow to use our weather pages